Temperature
8 8 8 8 9 9 9 9 9 9 10 10 10 10 10 11 11 11 11 11 11 11 11 11 11 11 11 11 11 11 11 12 11 11 11 12 12 12 12 13 13 13 13
8 8 8 8 8 8 8 9 9 9 9 9 9 9 9 10 10 10 10 10 10 10 10 10 10 10 10 11 10 11 11 11 11 11 10 10 11 12 12 13 13 13 13
8 8 8 8 8 8 8 8 8 8 8 8 8 9 9 9 9 10 10 10 10 10 10 10 10 10 10 10 10 10 10 10 10 10 10 10 10 11 12 12 12 12 12
7 7 7 7 7 7 7 7 7 7 8 8 8 8 8 8 9 9 9 9 9 9 9 9 9 9 9 10 10 10 9 9 9 9 9 9 9 10 10 11 11 12 12
7 7 7 7 7 7 7 7 7 7 7 7 7 7 7 8 8 8 8 8 8 8 9 9 9 9 9 9 9 9 9 9 9 9 9 9 9 9 9 9 10 11 11
7 7 7 6 6 6 6 6 6 7 7 7 7 7 7 7 7 7 8 8 8 8 8 8 8 8 8 8 8 8 8 8 8 8 8 8 8 8 9 9 9 9 10
7 7 6 6 6 6 6 6 6 6 6 6 6 6 6 6 6 6 7 7 7 7 7 7 7 8 8 8 8 8 8 8 8 8 8 8 8 8 8 8 8 8 9
7 7 6 6 6 6 6 6 6 6 6 6 6 6 5 5 6 6 6 6 6 6 7 7 7 7 7 7 7 7 7 7 7 7 7 7 7 7 7 7 8 8 8
7 7 6 6 6 6 5 5 5 5 5 5 5 5 5 5 5 5 5 5 5 6 6 6 6 6 7 7 7 7 7 7 7 7 7 7 7 7 7 7 7 7 7
7 7 6 6 6 6 5 5 5 5 5 5 5 5 5 5 5 5 5 5 5 5 5 5 6 6 6 6 6 6 6 6 6 6 6 6 6 6 6 6 6 6 6
7 7 6 6 6 6 5 5 5 5 5 5 5 5 5 4 4 4 4 5 5 5 5 5 5 5 5 5 5 5 5 5 5 5 5 5 5 6 6 6 5 5 5
7 7 6 6 6 6 5 5 5 5 5 5 4 4 4 4 4 4 4 4 4 4 4 5 5 5 5 4 4 4 4 5 4 4 4 4 4 4 4 5 5 5 4
7 7 6 6 6 6 5 5 5 5 5 4 4 4 4 4 4 4 4 4 4 4 4 4 4 4 4 4 4 4 4 4 4 4 4 4 4 4 3 3 3 3 3
7 7 6 6 6 6 5 5 5 5 5 4 4 4 4 3 3 3 3 3 3 3 3 3 3 3 3 3 3 3 3 3 3 3 3 3 3 3 3 3 3 2 2
7 7 7 6 6 6 5 5 5 5 4 4 4 4 3 3 3 3 3 3 3 3 3 3 3 3 3 2 2 2 2 2 2 2 2 2 2 2 2 2 2 2 2
7 7 7 6 6 6 5 5 5 5 4 4 4 3 3 3 3 3 2 2 2 2 2 2 2 2 2 2 1 1 1 1 1 1 1 1 1 1 1 1 0 0 0
7 7 7 7 6 6 5 5 5 4 4 4 3 3 3 3 2 2 2 2 2 2 2 1 1 1 1 1 1 1 1 0 0 0 0 0 0 0 -0 -0 -0 -0 -0
7 7 7 7 6 6 5 5 4 4 4 3 3 3 3 2 2 2 2 2 1 1 1 1 1 0 0 -0 -0 -0 -0 -0 -0 -1 -0 -1 -1 -1 -1 -1 -1 -1 -1
7 7 7 7 6 6 5 5 5 4 4 4 3 3 2 2 2 2 1 1 1 1 1 0 0 -0 -0 -1 -1 -1 -1 -1 -1 -1 -1 -2 -2 -2 -2 -2 -2 -2 -2
7 7 7 6 6 6 5 5 4 4 4 3 3 3 2 2 2 1 1 1 1 0 0 -0 -1 -1 -1 -1 -2 -2 -2 -2 -2 -2 -2 -3 -3 -3 -3 -3 -3 -3 -3
7 6 6 6 6 5 5 5 4 4 4 3 3 2 2 2 1 1 1 0 0 -0 -0 -1 -1 -1 -2 -2 -2 -3 -3 -3 -3 -3 -3 -3 -4 -4 -4 -4 -4 -4 -4
6 6 6 6 5 5 5 4 4 4 3 3 2 2 2 1 1 0 0 -0 -0 -1 -1 -1 -2 -2 -2 -3 -3 -4 -4 -4 -4 -4 -4 -4 -4 -4 -5 -4 -5 -5 -5
6 6 5 5 5 5 4 4 4 3 3 3 2 2 1 1 0 0 -0 -0 -1 -1 -1 -2 -2 -2 -3 -3 -4 -4 -4 -5 -5 -5 -5 -5 -5 -5 -5 -5 -5 -5 -5
5 5 5 5 5 4 4 4 3 3 3 2 2 1 1 0 -0 -0 -1 -1 -1 -2 -2 -2 -3 -3 -3 -4 -4 -4 -5 -5 -5 -5 -5 -5 -5 -5 -5 -5 -5 -6 -6
5 5 4 4 4 4 3 3 3 3 2 2 1 1 0 0 -0 -1 -1 -1 -2 -2 -3 -3 -3 -3 -4 -4 -5 -5 -5 -6 -6 -6 -6 -6 -6 -6 -6 -6 -6 -6 -6
5 4 4 4 4 3 3 3 2 2 2 2 1 1 0 -0 -1 -1 -1 -2 -2 -3 -3 -3 -4 -4 -4 -5 -5 -6 -6 -6 -6 -6 -6 -6 -6 -7 -7 -7 -7 -7 -7
Wind_Speed
3 3 3 4 4 5 6 6 7 7 6 5 4 4 4 4 4 4 6 7 7 7 5 4 4 4 4 5 5 5 6 5 3 3 4 6 7 8 8 8 8 9 12
3 3 3 4 5 5 6 6 6 7 6 5 4 3 4 4 4 4 6 7 7 7 6 4 4 4 5 5 5 5 4 4 4 3 3 4 4 6 8 8 9 9 8
3 3 4 4 5 5 6 6 7 7 7 6 4 4 3 3 3 4 4 6 8 7 6 5 4 4 4 5 5 6 7 6 5 5 4 3 5 3 3 6 8 8 7
3 3 3 4 5 5 5 5 6 6 6 6 5 5 4 4 4 5 5 6 7 7 7 6 5 4 4 4 5 5 6 6 6 4 5 5 3 3 3 3 4 6 7
4 4 4 4 5 4 5 5 6 6 6 6 5 4 4 4 5 5 6 6 6 6 7 6 5 4 4 4 5 5 5 5 6 5 3 5 5 5 4 5 3 3 4
4 4 4 4 4 4 4 5 5 6 6 6 5 5 5 6 6 6 6 5 5 5 6 7 6 5 4 4 4 5 5 5 6 5 4 4 3 4 4 6 5 5 4
4 4 4 4 4 4 4 4 5 6 6 5 5 5 5 5 5 5 5 6 5 5 7 6 6 5 5 4 4 4 4 4 4 4 4 4 4 2 3 5 5 5 4
5 5 5 4 4 4 4 4 4 5 5 5 5 5 5 3 4 5 5 5 4 5 6 6 6 6 6 5 4 3 3 3 4 4 4 4 4 3 3 3 3 4 4
6 6 5 5 4 4 4 3 4 4 4 4 5 4 4 4 4 5 4 4 5 5 6 6 6 6 6 5 4 3 3 3 3 3 3 3 3 2 2 2 3 4 5
6 6 5 5 4 4 3 2 3 3 3 4 4 3 4 4 4 4 4 5 5 5 6 6 6 6 6 6 5 4 4 3 3 2 2 2 2 2 2 2 2 3 5
7 6 6 5 4 3 3 2 2 2 2 3 3 3 4 4 4 4 4 4 5 5 6 6 6 6 6 6 5 5 5 4 4 3 3 3 3 2 2 2 2 2 3
6 6 6 5 4 4 3 3 2 2 2 2 2 3 3 4 4 4 5 5 5 5 5 5 6 6 6 6 6 6 6 5 5 5 4 4 3 3 3 2 2 2 2
6 5 5 5 5 5 4 3 3 3 2 1 1 2 3 3 4 4 4 5 5 5 6 6 6 6 6 6 6 5 5 5 5 5 4 4 4 3 3 3 3 3 3
6 6 6 6 6 5 4 4 4 3 1 0 0 1 2 3 3 3 4 4 5 5 5 6 5 5 5 5 6 5 5 5 5 5 4 4 4 3 3 3 3 3 3
7 7 7 6 5 5 5 4 4 3 2 1 1 1 1 2 2 3 3 4 4 5 5 5 6 6 5 5 5 5 4 5 5 6 5 5 6 6 5 3 3 3 3
9 8 7 7 7 6 6 5 4 3 2 2 2 1 0 1 2 2 3 3 4 4 5 5 5 6 5 8 9 6 5 5 5 5 5 5 6 7 8 8 7 6 4
9 8 8 8 7 7 6 6 5 3 3 3 2 1 1 0 1 2 2 3 3 4 4 5 5 6 7 10 9 9 5 5 5 5 5 5 6 7 5 6 7 7 8
8 8 7 7 6 5 5 4 4 4 4 3 3 2 2 1 0 1 2 2 2 3 3 4 5 5 7 10 9 8 5 4 5 5 5 5 5 6 5 4 5 5 5
8 7 6 5 5 5 5 5 4 4 4 4 4 3 3 2 1 0 1 1 1 2 2 3 4 5 6 9 9 7 3 4 5 6 6 6 5 8 9 5 5 5 5
5 5 3 3 4 5 5 6 5 5 6 6 5 4 3 3 2 2 1 0 1 1 2 3 3 4 5 8 9 7 2 3 4 5 6 8 9 10 9 5 4 5 6
4 4 4 4 5 5 6 6 6 8 7 5 4 4 4 4 3 2 1 1 1 1 2 2 3 4 5 7 8 8 3 3 4 4 5 6 11 11 11 8 4 6 7
4 3 4 5 4 5 6 6 8 7 4 5 4 4 4 3 3 3 2 2 1 1 1 2 3 2 4 6 7 8 7 6 3 4 4 5 10 11 10 8 8 10 9
5 4 4 4 4 5 6 8 7 5 5 5 5 4 4 3 3 3 3 2 1 1 1 1 2 2 3 4 7 7 8 8 4 4 7 8 10 9 7 9 11 9 5
5 4 4 4 5 5 6 7 5 5 6 6 5 5 5 4 3 3 3 3 3 2 2 2 2 2 3 3 4 3 4 6 5 4 5 8 8 7 7 8 7 5 5
5 4 5 6 6 5 5 5 5 6 6 6 5 5 5 4 4 3 3 3 3 4 3 3 2 2 3 4 6 5 3 3 4 4 2 3 4 5 5 5 5 5 6
5 5 6 6 5 5 5 5 6 7 7 6 5 5 4 4 4 3 2 3 4 4 4 3 2 3 4 6 7 7 7 7 7 4 3 3 4 5 6 6 6 6 6
Wind_Direction
296 327 347 352 357 357 356 348 345 343 346 343 340 331 323 320 324 327 324 320 318 315 305 295 283 266 253 251 248 242 243 239 228 240 257 252 237 235 233 231 230 232 231
305 324 336 350 351 346 345 342 343 341 342 334 318 295 294 296 296 312 324 326 326 323 318 302 286 272 264 256 248 240 244 244 215 219 246 265 262 242 237 231 231 234 229
266 300 319 325 335 338 338 338 335 336 336 333 326 322 319 316 325 329 329 332 331 327 320 307 291 279 265 265 257 243 237 244 230 213 216 229 241 267 249 234 232 231 230
259 278 300 312 317 318 323 326 330 332 334 337 339 338 335 321 312 319 317 324 330 330 327 318 305 288 277 269 263 256 246 242 244 235 231 239 226 227 269 271 247 241 240
249 266 282 291 301 310 318 322 326 329 335 340 340 335 323 310 311 320 322 328 332 336 336 329 317 303 292 285 278 269 258 248 248 242 241 245 248 239 241 267 272 269 251
244 261 279 289 297 308 319 324 326 329 337 340 341 337 327 324 328 331 332 332 331 334 341 335 326 311 301 293 286 275 264 257 253 249 242 238 242 240 236 253 263 265 268
232 252 271 284 294 306 314 321 326 328 333 336 338 337 330 327 326 326 328 331 332 332 335 334 328 322 315 308 300 288 276 263 258 253 249 244 249 252 241 248 261 265 269
231 242 254 262 272 291 306 314 323 322 330 335 332 335 339 336 328 329 330 329 326 323 328 329 327 327 324 320 313 300 290 274 257 259 254 250 253 247 243 243 251 267 264
236 242 252 254 261 278 288 298 309 317 326 331 330 336 347 342 335 334 336 332 331 331 337 334 335 338 338 335 329 318 314 305 289 278 271 265 267 264 262 257 246 249 263
242 247 249 250 254 261 276 293 301 306 318 330 333 341 341 339 339 342 345 344 341 343 343 347 350 353 355 355 352 343 337 335 324 311 305 296 295 294 292 282 276 262 260
241 243 245 246 248 254 260 270 287 303 322 333 333 339 338 341 351 353 348 347 348 352 356 358 2 6 7 6 4 1 355 354 346 345 346 333 329 326 329 323 317 299 280
240 239 242 244 246 250 251 252 264 277 289 314 341 343 341 350 358 357 353 356 360 1 3 8 11 12 10 10 11 8 6 4 3 1 6 1 4 2 356 355 343 319 306
245 242 240 243 245 243 241 242 245 254 276 309 343 346 350 353 353 353 357 4 6 8 10 16 17 15 13 15 14 16 17 15 11 9 12 7 14 7 358 358 347 329 325
247 243 241 243 243 241 237 235 240 240 241 242 346 343 338 339 346 356 6 10 13 15 12 13 13 11 12 17 16 15 20 21 17 15 17 15 13 359 353 356 344 332 325
254 244 240 240 238 239 240 234 234 229 208 186 221 284 317 335 353 9 12 14 20 20 14 14 12 8 10 16 19 14 23 26 23 20 16 13 17 11 6 357 340 333 322
251 248 241 236 234 231 230 228 229 222 195 196 223 249 305 3 9 10 15 20 21 19 21 19 12 8 10 17 24 29 28 26 26 16 6 8 11 10 7 2 356 348 328
249 244 236 231 231 227 219 219 222 204 190 206 217 217 205 354 354 12 28 22 15 19 21 15 15 9 6 16 23 33 33 26 17 8 2 360 357 358 344 348 354 354 351
244 242 235 231 226 215 209 206 195 188 193 206 216 209 193 212 317 30 20 8 12 19 15 12 9 5 4 13 21 29 32 23 10 1 354 348 342 342 339 342 345 342 340
238 237 229 223 214 209 198 184 192 193 198 211 216 211 195 193 182 197 345 359 21 16 9 6 7 2 352 5 15 25 19 14 3 356 354 349 338 340 345 347 336 331 329
237 232 223 208 212 210 179 180 198 201 214 216 212 202 188 184 193 204 192 93 70 16 4 5 1 353 343 357 9 18 26 7 353 350 350 354 351 347 352 352 340 333 326
243 224 211 216 222 197 174 193 205 218 220 202 191 188 187 189 190 177 154 135 99 48 16 2 351 344 345 353 2 7 13 355 348 348 347 345 351 354 356 357 350 333 334
247 222 219 234 226 190 183 205 222 223 193 179 183 187 187 190 176 165 162 143 128 83 2 352 339 332 333 348 352 359 0 358 353 339 331 335 347 352 356 356 348 347 349
247 230 224 236 235 203 193 214 227 194 175 175 185 187 181 182 174 174 174 161 156 166 253 295 309 318 324 334 349 354 354 355 352 331 334 341 350 355 358 357 356 356 349
244 232 225 233 241 224 213 220 213 180 174 183 188 183 180 183 181 184 185 180 189 200 226 254 279 301 317 319 322 327 335 341 338 333 341 349 355 359 356 356 354 349 339
238 220 221 231 240 234 226 218 197 177 181 185 187 184 186 185 185 193 199 197 205 200 212 229 242 269 296 311 325 332 327 323 318 335 351 348 347 350 347 343 343 342 340
232 228 230 234 238 231 230 217 193 182 181 187 189 186 184 186 187 191 216 228 216 229 238 247 258 274 294 315 327 331 332 335 337 350 346 340 341 339 338 337 335 334 334
Height
1512 1512 1511 1510 1509 1508 1506 1505 1503 1501 1500 1498 1497 1496 1495 1495 1494 1494 1493 1492 1491 1491 1490 1490 1490 1490 1490 1491 1492 1492 1493 1494 1495 1496 1495 1495 1496 1497 1497 1499 1500 1502 1503
1510 1510 1509 1509 1507 1506 1504 1502 1501 1499 1497 1495 1494 1493 1492 1491 1491 1490 1490 1489 1488 1487 1486 1485 1485 1485 1485 1486 1487 1487 1488 1488 1490 1491 1490 1489 1489 1489 1491 1492 1494 1495 1497
1508 1508 1507 1506 1505 1504 1502 1500 1498 1497 1495 1493 1491 1490 1489 1488 1487 1487 1486 1485 1484 1483 1482 1481 1481 1481 1481 1481 1481 1482 1482 1483 1484 1485 1486 1485 1483 1483 1484 1485 1487 1488 1490
1506 1506 1505 1504 1503 1502 1500 1498 1496 1494 1492 1490 1489 1487 1486 1484 1484 1483 1482 1481 1480 1479 1478 1477 1477 1477 1476 1476 1476 1477 1477 1478 1477 1479 1480 1481 1480 1480 1478 1479 1480 1482 1483
1504 1503 1503 1502 1501 1499 1498 1496 1494 1492 1490 1488 1486 1484 1483 1482 1481 1480 1479 1478 1477 1475 1474 1473 1473 1472 1472 1471 1471 1472 1472 1472 1472 1473 1473 1474 1474 1474 1474 1473 1474 1475 1477
1501 1501 1501 1500 1499 1497 1495 1493 1491 1489 1487 1485 1483 1482 1480 1479 1478 1477 1475 1474 1474 1472 1471 1470 1469 1468 1467 1467 1467 1467 1467 1467 1467 1468 1468 1468 1469 1468 1469 1469 1469 1469 1470
1499 1498 1498 1497 1496 1495 1493 1491 1489 1487 1485 1483 1481 1479 1478 1477 1475 1474 1473 1471 1470 1469 1468 1467 1466 1465 1464 1463 1463 1462 1462 1462 1462 1462 1463 1463 1464 1464 1465 1465 1464 1464 1464
1496 1496 1495 1495 1494 1492 1491 1489 1486 1484 1482 1480 1478 1477 1476 1474 1473 1472 1470 1469 1468 1466 1465 1464 1463 1462 1461 1460 1459 1458 1458 1458 1458 1458 1458 1458 1459 1459 1460 1460 1460 1459 1459
1494 1493 1493 1492 1491 1490 1488 1487 1484 1482 1480 1478 1477 1475 1474 1472 1471 1470 1469 1467 1466 1464 1463 1461 1460 1459 1458 1456 1455 1454 1454 1454 1453 1453 1453 1453 1453 1454 1454 1455 1455 1456 1454
1491 1491 1490 1490 1489 1488 1486 1484 1482 1481 1479 1477 1475 1473 1472 1470 1469 1468 1466 1465 1464 1462 1461 1459 1457 1456 1455 1453 1452 1451 1450 1450 1449 1449 1449 1449 1449 1449 1449 1450 1450 1450 1450
1488 1488 1488 1487 1486 1485 1484 1482 1481 1479 1477 1475 1473 1472 1470 1469 1467 1466 1464 1463 1462 1460 1459 1457 1456 1454 1452 1451 1449 1448 1447 1446 1446 1445 1445 1444 1444 1444 1444 1444 1445 1445 1445
1486 1486 1485 1485 1483 1482 1481 1480 1478 1477 1475 1474 1472 1470 1469 1467 1466 1464 1463 1461 1460 1459 1457 1455 1454 1452 1450 1448 1447 1445 1444 1443 1443 1442 1441 1441 1441 1440 1440 1440 1440 1440 1439
1483 1482 1482 1481 1480 1479 1478 1477 1476 1475 1473 1472 1470 1469 1467 1466 1464 1463 1461 1460 1459 1457 1455 1454 1452 1450 1448 1447 1445 1444 1442 1441 1440 1440 1439 1438 1438 1437 1437 1436 1435 1435 1434
1479 1478 1478 1478 1477 1476 1475 1474 1473 1472 1471 1470 1469 1467 1466 1464 1463 1461 1460 1459 1457 1456 1454 1452 1451 1449 1447 1445 1444 1442 1441 1439 1438 1437 1436 1436 1435 1434 1433 1433 1432 1431 1430
1475 1475 1474 1474 1474 1473 1472 1471 1471 1470 1468 1467 1466 1465 1464 1463 1461 1460 1459 1458 1456 1455 1453 1451 1449 1448 1446 1444 1442 1441 1439 1438 1436 1436 1435 1433 1432 1432 1431 1430 1429 1428 1426
1471 1471 1471 1470 1470 1470 1469 1468 1468 1467 1466 1465 1464 1464 1462 1461 1460 1459 1458 1456 1455 1453 1452 1450 1448 1446 1444 1443 1441 1440 1438 1436 1435 1434 1432 1431 1430 1429 1428 1427 1426 1424 1423
1467 1467 1467 1467 1467 1466 1466 1465 1465 1464 1463 1463 1462 1462 1461 1460 1459 1458 1456 1455 1454 1452 1451 1449 1447 1445 1443 1442 1440 1439 1437 1435 1434 1432 1431 1429 1428 1427 1425 1423 1422 1421 1419
1463 1463 1463 1463 1463 1463 1463 1462 1462 1461 1461 1460 1460 1459 1458 1458 1457 1456 1455 1453 1452 1451 1449 1448 1446 1444 1442 1441 1439 1437 1436 1434 1432 1430 1429 1427 1425 1424 1422 1420 1419 1417 1415
1460 1460 1460 1459 1459 1459 1459 1459 1458 1458 1458 1457 1457 1457 1456 1455 1455 1454 1453 1452 1451 1449 1448 1446 1445 1443 1441 1439 1438 1436 1434 1432 1430 1428 1426 1425 1423 1421 1420 1418 1416 1414 1411
1456 1456 1456 1456 1455 1455 1455 1455 1455 1454 1454 1454 1454 1454 1453 1453 1452 1452 1451 1450 1449 1448 1446 1445 1443 1442 1440 1438 1436 1434 1432 1430 1428 1426 1424 1422 1421 1419 1417 1415 1413 1410 1408
1452 1452 1451 1451 1451 1452 1451 1451 1451 1451 1451 1451 1451 1451 1451 1450 1450 1449 1449 1448 1447 1446 1444 1443 1442 1440 1438 1436 1434 1433 1431 1429 1426 1424 1422 1420 1419 1417 1415 1412 1410 1407 1405
1449 1448 1447 1447 1447 1447 1447 1447 1447 1447 1447 1447 1447 1448 1448 1447 1447 1447 1446 1445 1444 1443 1442 1441 1440 1438 1436 1435 1433 1431 1429 1427 1425 1423 1420 1418 1416 1414 1412 1409 1407 1404 1402
1444 1444 1443 1443 1443 1443 1443 1442 1443 1443 1443 1443 1444 1444 1444 1444 1444 1444 1443 1443 1442 1441 1440 1439 1437 1436 1434 1432 1431 1429 1427 1425 1423 1421 1419 1416 1414 1412 1409 1407 1404 1401 1398
1440 1439 1439 1438 1438 1438 1438 1438 1439 1439 1439 1439 1440 1440 1440 1441 1441 1440 1440 1440 1439 1438 1437 1436 1435 1433 1432 1430 1428 1426 1424 1423 1421 1419 1416 1414 1412 1410 1407 1404 1401 1398 1396
1436 1434 1434 1433 1433 1433 1433 1434 1434 1434 1434 1435 1436 1436 1436 1437 1437 1437 1437 1436 1436 1435 1434 1433 1432 1430 1429 1428 1426 1424 1422 1420 1418 1416 1414 1412 1409 1407 1404 1402 1399 1396 1393
1431 1430 1429 1429 1429 1429 1429 1429 1429 1430 1430 1430 1431 1432 1432 1433 1433 1433 1433 1432 1432 1432 1431 1430 1429 1427 1427 1425 1423 1422 1420 1418 1416 1414 1412 1409 1407 1405 1402 1399 1396 1393 1390